Weather History for Oakdale, LA

Change the Weather History Date:

Wednesday, January 23, 2013

  Actual Average (KPOE) Record (KPOE)
Temperature  
Mean Temperature 60 °F -  
Max Temperature 73 °F 58 °F 78 °F (2002)
Min Temperature 46 °F 39 °F 24 °F (2014)
Degree Days  
Heating Degree Days 6    
Growing Degree Days 10 (Base 50)    
Moisture  
Dew Point 54 °F    
Average Humidity 69    
Maximum Humidity 100    
Minimum Humidity 50    
Precipitation  
Precipitation 0.00 in - - ()
Sea Level Pressure  
Sea Level Pressure 30.31 in    
Wind  
Wind Speed 2 mph (South)    
Max Wind Speed 10 mph    
Max Gust Speed 16 mph    
Visibility 7 miles    
Events Fog    
Averages and records for this station are not official NWS values.
T = Trace of Precipitation, MM = Missing Value Source: NWS Daily Summary

Daily Weather History Graph

Daily Weather History Graph

Search for Another Location

Airport:

Trip Planner

Search our weather history database for the weather conditions in past years. The results will help you decide how hot, cold, wet, or windy it might be!

Date:

Astronomy

Jan. 23, 2013 Rise Set
Actual Time 7:06 AM CST 5:39 PM CST
Civil Twilight 6:40 AM CST 6:04 PM CST
Nautical Twilight 6:11 AM CST 6:33 PM CST
Astronomical Twilight 5:42 AM CST 7:02 PM CST
Moon 2:53 PM CST (1/23) 4:15 AM CST (1/23)
Length of Visible Light 11h 23m
Length of Day
10h 32m
Waxing Gibbous, 89% of the Moon is Illuminated
Jan 23
Waxing Gibbous
Jan 26
Full
Feb 3
Last Quarter
Feb 10
New
Feb 17
First Quarter

Hourly Weather History & Observations

Time (CST) Temp. Dew Point Humidity Pressure Visibility Wind Dir Wind Speed Gust Speed Precip Events Conditions
12:15 AM - - N/A% 30.32 in 7.0 mi Calm Calm - N/A   Clear
12:35 AM - - N/A% 30.32 in 7.0 mi Calm Calm - N/A   Clear
12:55 AM - - N/A% 30.31 in 7.0 mi Calm Calm - N/A   Clear
1:15 AM - - N/A% 30.32 in 7.0 mi Calm Calm - N/A   Clear
1:35 AM - - N/A% 30.32 in 7.0 mi Calm Calm - N/A   Mostly Cloudy
1:55 AM - - N/A% 30.32 in 7.0 mi Calm Calm - N/A   Scattered Clouds
2:15 AM - - N/A% 30.32 in 7.0 mi Calm Calm - N/A   Clear
2:35 AM - - N/A% 30.32 in 10.0 mi Calm Calm - N/A   Scattered Clouds
2:55 AM - - N/A% 30.32 in 1.5 mi Calm Calm - N/A   Overcast
3:15 AM - - N/A% 30.32 in 0.5 mi Calm Calm - N/A Fog Fog
3:35 AM - - N/A% 30.32 in 0.2 mi Calm Calm - N/A Fog Fog
3:55 AM - - N/A% 30.32 in 0.2 mi Calm Calm - N/A Fog Fog
4:15 AM - - N/A% 30.32 in 0.2 mi Calm Calm - N/A Fog Fog
4:35 AM - - N/A% 30.32 in 0.2 mi Calm Calm - N/A Fog Fog
4:55 AM - - N/A% 30.32 in 0.2 mi Calm Calm - N/A Fog Fog
5:15 AM - - N/A% 30.32 in 0.2 mi Calm Calm - N/A Fog Fog
5:35 AM 46.4 °F 46.4 °F 100% 30.33 in 0.2 mi Calm Calm - N/A Fog Fog
5:55 AM - - N/A% 30.33 in 0.2 mi Calm Calm - N/A Fog Fog
6:15 AM - - N/A% 30.34 in 0.2 mi Calm Calm - N/A Fog Fog
6:35 AM - - N/A% 30.35 in 0.2 mi Calm Calm - N/A Fog Fog
6:55 AM - - N/A% 30.36 in 0.2 mi Calm Calm - N/A Fog Fog
7:15 AM - - N/A% 30.36 in 0.2 mi Calm Calm - N/A Fog Fog
7:55 AM 46.4 °F 46.4 °F 100% 30.36 in 0.2 mi Calm Calm - N/A Fog Fog
8:15 AM 48.2 °F 48.2 °F 100% 30.36 in 0.2 mi Calm Calm - N/A Fog Fog
8:35 AM 50.0 °F 50.0 °F 100% 30.37 in 0.2 mi Calm Calm - N/A Fog Fog
9:15 AM 53.6 °F 53.6 °F 100% 30.38 in 4.0 mi South 3.5 mph - N/A   Mostly Cloudy
9:35 AM 57.2 °F 57.2 °F 100% 30.38 in 7.0 mi South 5.8 mph - N/A   Clear
9:55 AM - - N/A% 30.38 in 10.0 mi South 8.1 mph - N/A   Clear
10:15 AM - - N/A% 30.38 in 10.0 mi South 6.9 mph - N/A   Clear
10:35 AM 64.4 °F 59.0 °F 83% 30.38 in 10.0 mi South 5.8 mph - N/A   Clear
10:55 AM 66.2 °F 55.4 °F 68% 30.38 in 10.0 mi South 6.9 mph - N/A   Clear
11:15 AM 68.0 °F 55.4 °F 64% 30.37 in 10.0 mi South 8.1 mph - N/A   Clear
11:35 AM 68.0 °F 55.4 °F 64% 30.36 in 10.0 mi South 8.1 mph - N/A   Clear
11:55 AM 69.8 °F 53.6 °F 56% 30.35 in 10.0 mi South 8.1 mph - N/A   Clear
12:15 PM 69.8 °F 55.4 °F 60% 30.34 in 10.0 mi SW 5.8 mph - N/A   Clear
12:35 PM 69.8 °F 53.6 °F 56% 30.32 in 10.0 mi South 8.1 mph 16.1 mph N/A   Clear
12:55 PM 71.6 °F 53.6 °F 53% 30.31 in 10.0 mi South 9.2 mph - N/A   Clear
1:15 PM 71.6 °F 53.6 °F 53% 30.31 in 10.0 mi SW 9.2 mph - N/A   Clear
1:35 PM 71.6 °F 53.6 °F 53% 30.30 in 10.0 mi South 8.1 mph - N/A   Clear
1:55 PM 73.4 °F 53.6 °F 50% 30.30 in 10.0 mi SSW 6.9 mph - N/A   Scattered Clouds
2:15 PM 71.6 °F 53.6 °F 53% 30.29 in 10.0 mi South 8.1 mph - N/A   Clear
2:35 PM 71.6 °F 53.6 °F 53% 30.28 in 10.0 mi South 5.8 mph - N/A   Clear
2:55 PM 73.4 °F 53.6 °F 50% 30.28 in 10.0 mi South 8.1 mph - N/A   Clear
3:15 PM 71.6 °F 53.6 °F 53% 30.28 in 10.0 mi SSW 9.2 mph - N/A   Scattered Clouds
3:35 PM 71.6 °F 53.6 °F 53% 30.28 in 10.0 mi South 6.9 mph - N/A   Scattered Clouds
3:55 PM 71.6 °F 53.6 °F 53% 30.28 in 10.0 mi South 6.9 mph - N/A   Scattered Clouds
4:15 PM 71.6 °F 51.8 °F 50% 30.28 in 10.0 mi South 8.1 mph - N/A   Clear
4:35 PM 69.8 °F 53.6 °F 56% 30.28 in 10.0 mi South 10.4 mph 16.1 mph N/A   Clear
4:55 PM 69.8 °F 53.6 °F 56% 30.28 in 10.0 mi South 6.9 mph - N/A   Clear
5:15 PM 68.0 °F 53.6 °F 60% 30.28 in 10.0 mi South 6.9 mph - N/A   Clear
5:35 PM 66.2 °F 53.6 °F 64% 30.28 in 10.0 mi South 4.6 mph - N/A   Clear
5:55 PM 64.4 °F 55.4 °F 73% 30.28 in 10.0 mi South 5.8 mph - N/A   Clear
6:15 PM 62.6 °F 55.4 °F 77% 30.27 in 10.0 mi South 4.6 mph - N/A   Clear
6:35 PM 62.6 °F 55.4 °F 77% 30.28 in 10.0 mi Calm Calm - N/A   Clear
6:55 PM 60.8 °F 55.4 °F 82% 30.28 in 10.0 mi Calm Calm - N/A   Clear
7:15 PM 55.4 °F 55.4 °F 100% 30.28 in 10.0 mi Calm Calm - N/A   Clear
7:35 PM - - N/A% 30.27 in 10.0 mi Calm Calm - N/A   Clear
7:55 PM - - N/A% 30.27 in 10.0 mi South 4.6 mph - N/A   Clear
8:15 PM - - N/A% 30.27 in 10.0 mi SSE 3.5 mph - N/A   Clear
8:35 PM - - N/A% 30.27 in 10.0 mi South 3.5 mph - N/A   Clear
8:55 PM - - N/A% 30.28 in 10.0 mi Calm Calm - N/A   Scattered Clouds
9:15 PM - - N/A% 30.28 in 5.0 mi Calm Calm - N/A   Haze
9:35 PM - - N/A% 30.29 in 4.0 mi Calm Calm - N/A   Haze
9:55 PM - - N/A% 30.29 in 4.0 mi Calm Calm - N/A   Haze
10:15 PM - - N/A% 30.30 in 7.0 mi Calm Calm - N/A   Overcast
10:35 PM - - N/A% 30.29 in 7.0 mi Calm Calm - N/A   Overcast
10:55 PM - - N/A% 30.28 in 5.0 mi Calm Calm - N/A   Haze
11:15 PM - - N/A% 30.28 in 7.0 mi Calm Calm - N/A   Overcast
11:35 PM - - N/A% 30.28 in 5.0 mi Calm Calm - N/A   Haze
11:55 PM - - N/A% 30.28 in 5.0 mi Calm Calm - N/A   Haze